When you browse on this site, cookies collect data to enhance your experience and personalize the content and advertising you see.
Visit our Privacy Policy to learn more. By continuing to use the site, you agree to this use of cookies and data.
  • In Hungary
  • List of Countries
  • For 7 days
  • Water Temperature
  • Satellite Maps
  • Weather Map
  • News
  • Weather Widgets
  • user-avatar
    Login

    Hourly Weather Thebes

    Today, 18 December, Tuesday

    Time Temperature Precipitation Wind Pressure Humidity
    00:00 +10°C° 0.9 mm 2 mps 745 mmHg 83%
    01:00 +10°C° 0.9 mm 2 mps 744 mmHg 86%
    02:00 +10°C° 0 mm 2 mps 744 mmHg 89%
    03:00 +9°C° 0.7 mm 2 mps 743 mmHg 89%
    04:00 +9°C° 0.7 mm 2 mps 743 mmHg 89%
    05:00 +9°C° 0.7 mm 2 mps 743 mmHg 89%
    06:00 +9°C° 0.8 mm 3 mps 743 mmHg 89%
    07:00 +9°C° 0.8 mm 3 mps 743 mmHg 88%
    08:00 +9°C° 0 mm 2 mps 743 mmHg 89%
    09:00 +9°C° 0.5 mm 3 mps 743 mmHg 86%
    10:00 +9°C° 0.5 mm 3 mps 743 mmHg 84%
    11:00 +10°C° 0.5 mm 4 mps 743 mmHg 82%
    12:00 +10°C° 0.5 mm 4 mps 743 mmHg 80%
    13:00 +9°C° 0.5 mm 5 mps 744 mmHg 79%
    14:00 +9°C° 0 mm 5 mps 744 mmHg 80%
    15:00 +9°C° 0.8 mm 5 mps 744 mmHg 81%
    16:00 +8°C° 0.8 mm 6 mps 745 mmHg 83%
    17:00 +8°C° 0.8 mm 6 mps 745 mmHg 84%
    18:00 +8°C° 0.5 mm 6 mps 746 mmHg 84%
    19:00 +8°C° 0.5 mm 6 mps 746 mmHg 83%
    20:00 +7°C° 0.5 mm 6 mps 747 mmHg 83%
    21:00 +7°C° 0.2 mm 6 mps 747 mmHg 82%
    22:00 +7°C° 0.2 mm 6 mps 748 mmHg 82%
    23:00 +7°C° 0.2 mm 6 mps 748 mmHg 81%

    Tomorrow, 19 December, Wednesday

    Time Temperature Precipitation Wind Pressure Humidity
    00:00 +7°C° 0.2 mm 5 mps 748 mmHg 81%
    01:00 +6°C° 0.2 mm 5 mps 748 mmHg 81%
    02:00 +6°C° 0.2 mm 5 mps 749 mmHg 81%
    03:00 +6°C° 0.1 mm 4 mps 749 mmHg 81%
    04:00 +6°C° 0.1 mm 4 mps 749 mmHg 81%
    05:00 +6°C° 0.1 mm 4 mps 749 mmHg 81%
    06:00 +6°C° 0.1 mm 4 mps 749 mmHg 81%
    07:00 +6°C° 0.1 mm 4 mps 750 mmHg 81%
    08:00 +6°C° 0.1 mm 4 mps 750 mmHg 81%
    09:00 +7°C° 0.1 mm 4 mps 750 mmHg 79%
    10:00 +7°C° 0.1 mm 4 mps 751 mmHg 76%
    11:00 +8°C° 0.1 mm 4 mps 751 mmHg 74%
    12:00 +8°C° 0 mm 4 mps 751 mmHg 73%
    13:00 +8°C° 0 mm 4 mps 751 mmHg 72%
    14:00 +8°C° 0 mm 4 mps 751 mmHg 71%
    15:00 +9°C° 0 mm 3 mps 752 mmHg 73%
    16:00 +8°C° 0 mm 3 mps 752 mmHg 74%
    17:00 +8°C° 0 mm 3 mps 752 mmHg 76%
    18:00 +8°C° 0 mm 2 mps 752 mmHg 77%
    19:00 +7°C° 0 mm 2 mps 753 mmHg 79%
    20:00 +7°C° 0 mm 2 mps 753 mmHg 80%
    21:00 +7°C° 0 mm 2 mps 753 mmHg 81%
    22:00 +7°C° 0 mm 2 mps 753 mmHg 82%
    23:00 +8°C° 0 mm 1 mps 753 mmHg 83%

    Day after tomorrow, 20 December, Thursday

    Time Temperature Precipitation Wind Pressure Humidity
    00:00 +8°C° 0 mm 1 mps 754 mmHg 83%
    01:00 +7°C° 0 mm 1 mps 754 mmHg 84%
    02:00 +7°C° 0 mm 1 mps 754 mmHg 84%
    03:00 +7°C° 0 mm 1 mps 754 mmHg 85%
    04:00 +7°C° 0 mm 1 mps 754 mmHg 85%
    05:00 +7°C° 0 mm 1 mps 754 mmHg 85%
    06:00 +7°C° 0 mm 1 mps 754 mmHg 85%
    07:00 +7°C° 0 mm 1 mps 754 mmHg 85%
    08:00 +7°C° 0 mm 1 mps 754 mmHg 86%
    09:00 +8°C° 0 mm 1 mps 755 mmHg 81%
    10:00 +9°C° 0 mm 1 mps 755 mmHg 76%
    11:00 +10°C° 0 mm 1 mps 755 mmHg 71%
    12:00 +11°C° 0 mm 1 mps 755 mmHg 68%
    13:00 +11°C° 0 mm 1 mps 754 mmHg 66%
    14:00 +12°C° 0 mm 1 mps 754 mmHg 63%
    15:00 +11°C° 0 mm 1 mps 754 mmHg 66%
    16:00 +11°C° 0 mm 1 mps 754 mmHg 69%
    17:00 +10°C° 0 mm 1 mps 754 mmHg 72%
    18:00 +10°C° 0 mm 1 mps 754 mmHg 74%
    19:00 +9°C° 0 mm 1 mps 754 mmHg 77%
    20:00 +9°C° 0 mm 1 mps 755 mmHg 79%
    21:00 +9°C° 0 mm 1 mps 755 mmHg 80%
    22:00 +9°C° 0 mm 1 mps 755 mmHg 82%
    23:00 +8°C° 0 mm 1 mps 755 mmHg 83%

    21 December, Friday

    Time Temperature Precipitation Wind Pressure Humidity
    00:00 +8°C° 0 mm 1 mps 755 mmHg 84%
    01:00 +8°C° 0 mm 1 mps 755 mmHg 84%
    02:00 +7°C° 0 mm 0 mps 755 mmHg 85%
    03:00 +7°C° 0 mm 0 mps 754 mmHg 86%
    04:00 +7°C° 0 mm 0 mps 754 mmHg 86%
    05:00 +7°C° 0 mm 0 mps 754 mmHg 86%
    06:00 +7°C° 0 mm 0 mps 754 mmHg 86%
    07:00 +7°C° 0 mm 0 mps 755 mmHg 86%
    08:00 +7°C° 0 mm 0 mps 755 mmHg 87%
    09:00 +8°C° 0 mm 0 mps 755 mmHg 81%
    10:00 +9°C° 0 mm 0 mps 755 mmHg 76%
    11:00 +11°C° 0 mm 0 mps 755 mmHg 71%
    12:00 +11°C° 0 mm 0 mps 755 mmHg 68%
    13:00 +12°C° 0 mm 0 mps 755 mmHg 66%
    14:00 +12°C° 0 mm 0 mps 754 mmHg 64%
    15:00 +12°C° 0 mm 0 mps 754 mmHg 67%
    16:00 +11°C° 0 mm 0 mps 754 mmHg 71%
    17:00 +11°C° 0 mm 0 mps 754 mmHg 74%
    18:00 +10°C° 0 mm 0 mps 754 mmHg 77%
    19:00 +11°C° 0 mm 1 mps 754 mmHg 79%
    20:00 +11°C° 0 mm 1 mps 754 mmHg 82%
    21:00 +10°C° 0 mm 1 mps 754 mmHg 83%
    22:00 +10°C° 0 mm 1 mps 754 mmHg 84%
    23:00 +10°C° 0 mm 1 mps 754 mmHg 85%

    22 December, Saturday

    Time Temperature Precipitation Wind Pressure Humidity
    00:00 +10°C° 0 mm 1 mps 754 mmHg 86%
    01:00 +10°C° 0 mm 1 mps 754 mmHg 87%
    02:00 +10°C° 0 mm 1 mps 754 mmHg 88%
    03:00 +10°C° 0 mm 1 mps 754 mmHg 88%
    04:00 +10°C° 0 mm 1 mps 753 mmHg 88%
    05:00 +10°C° 0 mm 1 mps 753 mmHg 88%
    06:00 +10°C° 0 mm 1 mps 753 mmHg 88%
    07:00 +10°C° 0 mm 1 mps 753 mmHg 88%
    08:00 +10°C° 0 mm 1 mps 753 mmHg 88%
    09:00 +11°C° 0 mm 1 mps 754 mmHg 83%
    10:00 +13°C° 0 mm 1 mps 754 mmHg 78%
    11:00 +14°C° 0 mm 1 mps 754 mmHg 72%
    12:00 +15°C° 0 mm 1 mps 753 mmHg 69%
    13:00 +15°C° 0 mm 1 mps 753 mmHg 66%
    14:00 +16°C° 0 mm 1 mps 752 mmHg 63%
    15:00 +15°C° 0 mm 1 mps 752 mmHg 67%
    16:00 +15°C° 0 mm 1 mps 752 mmHg 70%
    17:00 +14°C° 0 mm 1 mps 752 mmHg 74%
    18:00 +13°C° 0 mm 1 mps 752 mmHg 77%
    19:00 +13°C° 0 mm 1 mps 752 mmHg 80%
    20:00 +12°C° 0 mm 1 mps 752 mmHg 82%
    21:00 +12°C° 0 mm 1 mps 752 mmHg 83%
    22:00 +12°C° 0 mm 1 mps 752 mmHg 84%
    23:00 +11°C° 0 mm 1 mps 752 mmHg 85%

    23 December, Sunday

    Time Temperature Precipitation Wind Pressure Humidity
    00:00 +11°C° 0 mm 1 mps 751 mmHg 85%
    01:00 +11°C° 0 mm 1 mps 751 mmHg 84%
    02:00 +11°C° 0 mm 1 mps 751 mmHg 84%
    03:00 +11°C° 0 mm 1 mps 751 mmHg 83%
    04:00 +11°C° 0 mm 1 mps 751 mmHg 83%
    05:00 +10°C° 0 mm 1 mps 751 mmHg 82%
    06:00 +10°C° 0 mm 1 mps 751 mmHg 82%
    07:00 +10°C° 0 mm 1 mps 751 mmHg 82%
    08:00 +10°C° 0 mm 1 mps 751 mmHg 82%
    09:00 +12°C° 0 mm 1 mps 752 mmHg 76%
    10:00 +13°C° 0 mm 1 mps 752 mmHg 70%
    11:00 +15°C° 0 mm 1 mps 752 mmHg 64%
    12:00 +14°C° 0 mm 0 mps 752 mmHg 61%
    13:00 +15°C° 0 mm 0 mps 752 mmHg 59%
    14:00 +16°C° 0 mm 0 mps 751 mmHg 56%
    15:00 +15°C° 0 mm 0 mps 751 mmHg 61%
    16:00 +14°C° 0 mm 0 mps 751 mmHg 65%
    17:00 +14°C° 0 mm 1 mps 751 mmHg 69%
    18:00 +14°C° 0 mm 1 mps 752 mmHg 72%
    19:00 +13°C° 0 mm 1 mps 752 mmHg 75%
    20:00 +11°C° 0 mm 0 mps 752 mmHg 77%
    21:00 +11°C° 0 mm 0 mps 752 mmHg 79%
    22:00 +11°C° 0 mm 0 mps 753 mmHg 80%
    23:00 +11°C° 0 mm 0 mps 753 mmHg 81%
    Show more